Tracking 28096 objects as of 29-Sep-2023
HD Live streaming from Space Station
objects crossing your sky now

COSMOS 1275 DEB

Track COSMOS 1275 DEB now!
10-day predictions


NORAD ID: 12963
Int'l Code: 1981-053EJ
Perigee: 946.2 km
Apogee: 982.1 km
Inclination: 82.9 °
Period: 104.2 minutes
Semi major axis: 7335 km
RCS: 0.047 m2 (small)
Launch date: June 4, 1981
Source: Commonwealth of Independent States (former USSR) (CIS)
Launch site: PLESETSK MISSILE AND SPACE COMPLEX (PKMTR)

Note: This is SATELLITE DEBRIS
Your satellite tracking list
Your tracking list is empty




NASA's NSSDC Master Catalog

Two Line Element Set (TLE):
1 12963U 81053EJ  23271.29508993  .00000668  00000-0  60707-3 0  9991
2 12963  82.9490 197.4549 0024449 139.2470 339.5219 13.81947802108647
Source of the keplerian elements: AFSPC